RYR99QQ EPGD-EGNT

Flight info

Callsign RYR99QQ
Flight time N/A
Altitude 30000
Route DEXIR Y100 MALOX L621 LUSID DCT PETIL DCT SURAT DCT BEVAM DCT NATEB
Aircraft B738/M-SDE2E3FGHIRWXY/LB1

Departure

Time 2026-05-06 10:05
Airport Gdańsk Lech Wałęsa Airport (EPGD)

Arrival

Time N/A
Airport Newcastle International Airport (EGNT)
Time Latitude Longitude Altitude Speed Heading
2026-05-06 09:39 54.38223 18.46189 459 ft 0 kts 23°
2026-05-06 09:59 54.38218 18.46185 459 ft 4 kts 21°
2026-05-06 09:59 54.38194 18.46176 459 ft 4 kts 351°
2026-05-06 10:00 54.38173 18.46194 456 ft 4 kts 299°
2026-05-06 10:00 54.38169 18.46206 455 ft 1 kts 290°
2026-05-06 10:02 54.38170 18.46205 455 ft 1 kts 290°
2026-05-06 10:02 54.38178 18.46144 456 ft 10 kts 262°
2026-05-06 10:02 54.38119 18.46064 458 ft 11 kts 219°
2026-05-06 10:03 54.38103 18.45944 458 ft 11 kts 291°
2026-05-06 10:03 54.38138 18.45808 452 ft 13 kts 293°
2026-05-06 10:03 54.38133 18.45663 452 ft 13 kts 223°
2026-05-06 10:03 54.38056 18.45590 454 ft 13 kts 217°
2026-05-06 10:04 54.38049 18.45453 455 ft 12 kts 292°
2026-05-06 10:04 54.38105 18.45350 457 ft 12 kts 324°
2026-05-06 10:04 54.38123 18.45239 458 ft 10 kts 210°
2026-05-06 10:04 54.38092 18.45274 457 ft 5 kts 114°
2026-05-06 10:05 54.38060 18.45399 456 ft 35 kts 113°
2026-05-06 10:05 54.37851 18.46250 457 ft 117 kts 113°
2026-05-06 10:05 54.37445 18.47847 656 ft 167 kts 108°
2026-05-06 10:05 54.36989 18.49691 1828 ft 157 kts 108°
2026-05-06 10:06 54.36552 18.51367 3001 ft 160 kts 111°
2026-05-06 10:06 54.36089 18.53257 3372 ft 187 kts 112°
2026-05-06 10:06 54.35548 18.55442 3655 ft 208 kts 112°
2026-05-06 10:06 54.34967 18.57751 4342 ft 213 kts 113°
2026-05-06 10:07 54.34370 18.60105 5186 ft 217 kts 115°
2026-05-06 10:07 54.33760 18.62489 6069 ft 219 kts 117°
2026-05-06 10:07 54.32833 18.64520 6766 ft 222 kts 144°
2026-05-06 10:07 54.31423 18.65581 7540 ft 225 kts 169°
2026-05-06 10:08 54.29842 18.65482 8319 ft 231 kts 194°
2026-05-06 10:08 54.28367 18.64266 9004 ft 249 kts 218°
2026-05-06 10:08 54.27351 18.61699 9481 ft 274 kts 245°
2026-05-06 10:08 54.26910 18.58454 10241 ft 288 kts 260°
2026-05-06 10:09 54.26735 18.54878 10483 ft 316 kts 263°
2026-05-06 10:09 54.26618 18.51000 10952 ft 332 kts 264°
2026-05-06 10:09 54.26513 18.47076 11737 ft 335 kts 264°
2026-05-06 10:09 54.26400 18.43086 12692 ft 335 kts 264°
2026-05-06 10:10 54.26276 18.39085 13641 ft 337 kts 263°
2026-05-06 10:10 54.26140 18.35072 14385 ft 339 kts 263°
2026-05-06 10:10 54.25996 18.31057 15037 ft 343 kts 263°
2026-05-06 10:10 54.25843 18.26942 15693 ft 348 kts 263°
2026-05-06 10:11 54.25684 18.22782 16345 ft 351 kts 263°
2026-05-06 10:11 54.25521 18.18584 17020 ft 355 kts 263°
2026-05-06 10:11 54.25354 18.14345 17673 ft 359 kts 263°
2026-05-06 10:11 54.25185 18.10111 18271 ft 363 kts 263°
2026-05-06 10:12 54.25012 18.05803 18817 ft 366 kts 263°
2026-05-06 10:12 54.24835 18.01431 19405 ft 369 kts 263°
2026-05-06 10:12 54.24655 17.97038 19964 ft 372 kts 263°
2026-05-06 10:12 54.24472 17.92604 20507 ft 375 kts 263°
2026-05-06 10:13 54.24285 17.88126 21043 ft 378 kts 263°
2026-05-06 10:13 54.24095 17.83617 21586 ft 381 kts 263°
2026-05-06 10:13 54.23902 17.79068 22120 ft 385 kts 262°
2026-05-06 10:13 54.23706 17.74489 22642 ft 388 kts 262°
2026-05-06 10:14 54.23506 17.69864 23205 ft 391 kts 262°
2026-05-06 10:14 54.23372 17.66776 23531 ft 393 kts 262°
2026-05-06 10:14 54.23168 17.62102 23966 ft 396 kts 262°
2026-05-06 10:14 54.22960 17.57379 24381 ft 400 kts 262°
2026-05-06 10:15 54.22748 17.52614 24797 ft 402 kts 262°
2026-05-06 10:15 54.22535 17.47890 25213 ft 405 kts 262°
2026-05-06 10:15 54.22402 17.43057 25583 ft 410 kts 267°
2026-05-06 10:15 54.22539 17.38154 25946 ft 415 kts 270°
2026-05-06 10:16 54.22746 17.33218 26313 ft 418 kts 270°
2026-05-06 10:16 54.22966 17.28233 26702 ft 420 kts 270°
2026-05-06 10:16 54.23175 17.23213 27059 ft 423 kts 270°
2026-05-06 10:16 54.23367 17.18247 27390 ft 426 kts 270°
2026-05-06 10:17 54.23550 17.13164 27734 ft 428 kts 269°
2026-05-06 10:17 54.23729 17.08050 28104 ft 430 kts 269°
2026-05-06 10:17 54.23904 17.02924 28440 ft 433 kts 269°
2026-05-06 10:17 54.24079 16.97761 28748 ft 436 kts 269°
2026-05-06 10:18 54.24387 16.92641 29049 ft 442 kts 277°
2026-05-06 10:18 54.25260 16.87561 29407 ft 449 kts 288°
2026-05-06 10:18 54.26645 16.82724 29736 ft 457 kts 298°
2026-05-06 10:18 54.28496 16.78238 30010 ft 461 kts 303°
2026-05-06 10:19 54.30449 16.73845 30277 ft 464 kts 304°
2026-05-06 10:19 54.32403 16.69522 30599 ft 464 kts 304°
2026-05-06 10:19 54.34370 16.65152 31030 ft 461 kts 303°
2026-05-06 10:19 54.36309 16.60796 31472 ft 458 kts 303°
2026-05-06 10:20 54.38226 16.56439 31859 ft 456 kts 303°
2026-05-06 10:20 54.40129 16.52074 32218 ft 455 kts 302°
2026-05-06 10:20 54.42016 16.47721 32608 ft 453 kts 302°
2026-05-06 10:20 54.43893 16.43375 32971 ft 452 kts 302°
2026-05-06 10:21 54.45763 16.39035 33336 ft 451 kts 302°
2026-05-06 10:21 54.47603 16.34762 33720 ft 449 kts 302°
2026-05-06 10:21 54.49453 16.30459 34057 ft 447 kts 302°
2026-05-06 10:21 54.51299 16.26157 34330 ft 446 kts 302°
2026-05-06 10:22 54.53147 16.21844 34581 ft 446 kts 302°
2026-05-06 10:22 54.54985 16.17549 34874 ft 444 kts 302°
2026-05-06 10:22 54.56816 16.13261 35174 ft 443 kts 302°
2026-05-06 10:22 54.58617 16.09038 35426 ft 442 kts 302°
2026-05-06 10:23 54.60442 16.04750 35673 ft 441 kts 302°
2026-05-06 10:23 54.62256 16.00480 35945 ft 440 kts 301°
2026-05-06 10:23 54.64065 15.96216 36212 ft 439 kts 301°
2026-05-06 10:23 54.65869 15.91955 36451 ft 438 kts 301°
2026-05-06 10:24 54.67668 15.87698 36667 ft 438 kts 301°
2026-05-06 10:24 54.69461 15.83451 36922 ft 437 kts 301°
2026-05-06 10:24 54.71229 15.79257 37171 ft 435 kts 301°
2026-05-06 10:24 54.73008 15.75027 37370 ft 435 kts 301°
2026-05-06 10:25 54.74788 15.70763 37557 ft 435 kts 301°
2026-05-06 10:25 54.76553 15.66503 37771 ft 434 kts 301°
2026-05-06 10:25 54.78292 15.62286 37874 ft 436 kts 301°
2026-05-06 10:25 54.80060 15.57994 37874 ft 437 kts 301°
2026-05-06 10:26 54.83587 15.49421 37867 ft 434 kts 301°
2026-05-06 10:26 54.87070 15.40937 37879 ft 431 kts 301°
2026-05-06 10:27 54.90495 15.32436 37876 ft 426 kts 296°
2026-05-06 10:27 54.92739 15.23090 37885 ft 415 kts 280°
2026-05-06 10:28 54.94112 15.13331 37897 ft 420 kts 279°
2026-05-06 10:28 54.95487 15.03363 37894 ft 426 kts 280°
2026-05-06 10:29 54.96895 14.93282 37897 ft 429 kts 280°
2026-05-06 10:29 54.98310 14.83210 37885 ft 431 kts 280°
2026-05-06 10:30 54.99723 14.73136 37873 ft 422 kts 280°
2026-05-06 10:30 55.01101 14.63251 37889 ft 419 kts 280°
2026-05-06 10:31 55.02457 14.53440 37892 ft 418 kts 280°
2026-05-06 10:31 55.03813 14.43559 37892 ft 418 kts 280°
2026-05-06 10:32 55.05152 14.33734 37900 ft 419 kts 280°
2026-05-06 10:32 55.06499 14.23796 37900 ft 419 kts 279°
2026-05-06 10:33 55.07828 14.13926 37904 ft 420 kts 279°
2026-05-06 10:33 55.09159 14.03967 37901 ft 421 kts 279°
2026-05-06 10:34 55.10486 13.93981 37907 ft 422 kts 279°
2026-05-06 10:34 55.11796 13.84049 37904 ft 422 kts 279°
2026-05-06 10:35 55.13110 13.74023 37908 ft 422 kts 279°
2026-05-06 10:35 55.14417 13.63980 37905 ft 423 kts 279°
2026-05-06 10:36 55.15705 13.54006 37914 ft 422 kts 279°
2026-05-06 10:36 55.16996 13.43949 37912 ft 422 kts 279°
2026-05-06 10:37 55.18266 13.33981 37918 ft 422 kts 279°
2026-05-06 10:37 55.19536 13.23940 37911 ft 421 kts 279°
2026-05-06 10:38 55.20788 13.13970 37921 ft 421 kts 279°
2026-05-06 10:38 55.22036 13.03964 37916 ft 420 kts 279°
2026-05-06 10:39 55.23275 12.93953 37918 ft 419 kts 279°
2026-05-06 10:39 55.24499 12.84000 37924 ft 419 kts 279°
2026-05-06 10:40 55.25719 12.74000 37914 ft 418 kts 279°
2026-05-06 10:40 55.26930 12.64002 37921 ft 418 kts 279°
2026-05-06 10:41 55.28125 12.54066 37927 ft 418 kts 279°
2026-05-06 10:41 55.29318 12.44067 37926 ft 418 kts 278°
2026-05-06 10:42 55.30463 12.34403 37928 ft 418 kts 278°
2026-05-06 10:42 55.31641 12.24386 37922 ft 418 kts 278°
2026-05-06 10:43 55.32809 12.14384 37925 ft 418 kts 278°
2026-05-06 10:44 55.34546 11.99361 37915 ft 418 kts 278°
2026-05-06 10:44 55.35695 11.89322 37915 ft 419 kts 278°
2026-05-06 10:45 55.36828 11.79351 37916 ft 419 kts 278°
2026-05-06 10:45 55.37965 11.69268 37920 ft 419 kts 278°
2026-05-06 10:46 55.39093 11.59187 37913 ft 419 kts 278°
2026-05-06 10:46 55.40205 11.49169 37921 ft 419 kts 278°
2026-05-06 10:47 55.41309 11.39141 37918 ft 419 kts 278°
2026-05-06 10:47 55.42408 11.29073 37923 ft 418 kts 278°
2026-05-06 10:48 55.43502 11.18980 37921 ft 418 kts 278°
2026-05-06 10:48 55.44579 11.08961 37928 ft 418 kts 278°
2026-05-06 10:49 55.45652 10.98894 37930 ft 417 kts 278°
2026-05-06 10:49 55.46709 10.88892 37938 ft 416 kts 278°
2026-05-06 10:50 55.47761 10.78857 37934 ft 416 kts 278°
2026-05-06 10:50 55.48798 10.68883 37944 ft 415 kts 278°
2026-05-06 10:51 55.49833 10.58844 37938 ft 415 kts 278°
2026-05-06 10:51 55.50858 10.48815 37937 ft 415 kts 278°
2026-05-06 10:52 55.51869 10.38843 37942 ft 414 kts 278°
2026-05-06 10:52 55.52878 10.28801 37940 ft 414 kts 278°
2026-05-06 10:53 55.53876 10.18775 37941 ft 414 kts 277°
2026-05-06 10:53 55.54861 10.08807 37939 ft 414 kts 277°
2026-05-06 10:54 55.55841 9.98792 37941 ft 414 kts 277°
2026-05-06 10:54 55.56812 9.88782 37944 ft 413 kts 277°
2026-05-06 10:55 55.57769 9.78831 37942 ft 413 kts 277°
2026-05-06 10:55 55.58723 9.68823 37945 ft 412 kts 277°
2026-05-06 10:56 55.59669 9.58809 37940 ft 412 kts 277°
2026-05-06 10:56 55.60608 9.48779 37941 ft 412 kts 277°
2026-05-06 10:57 55.61531 9.38826 37941 ft 412 kts 277°
2026-05-06 10:57 55.62449 9.28829 37964 ft 411 kts 277°
2026-05-06 10:58 55.63361 9.18813 37962 ft 411 kts 277°
2026-05-06 10:58 55.64256 9.08887 37966 ft 411 kts 277°
2026-05-06 10:59 55.65151 8.98867 37964 ft 411 kts 277°
2026-05-06 10:59 55.66034 8.88876 37962 ft 411 kts 277°
2026-05-06 11:00 55.66907 8.78923 37958 ft 410 kts 277°
2026-05-06 11:00 55.67774 8.68923 37961 ft 410 kts 277°